Wetterdaten: Sonntag, 15.03.2015
Datum Zeit Temp. A. Feuchte A. Luftdruck Regen Wind Richtung Richtung Sonnenschein ET UV Solar Taupunkt Windchill Windben Empfang
15.03.2015 00:00 2,2 C 74 % 1023,8 hPa 0,0 l/m 0,4 km/h (0 Bft) S-SW 193 0 min 0,000 mm 0,0 UV-I 0 W/m -1,9 C 2,2 C 4,0 km/h (1 Bft) 0,00 %
15.03.2015 00:15 2,2 C 74 % 1023,7 hPa 0,0 l/m 0,4 km/h (0 Bft) S 172 0 min 0,000 mm 0,0 UV-I 0 W/m -1,9 C 2,2 C 4,0 km/h (1 Bft) 0,00 %
15.03.2015 00:30 2,3 C 73 % 1023,7 hPa 0,0 l/m 5,4 km/h (1 Bft) O-SO 120 0 min 0,000 mm 0,0 UV-I 0 W/m -2,0 C 2,3 C 7,9 km/h (2 Bft) 0,00 %
15.03.2015 00:45 2,3 C 73 % 1023,7 hPa 0,0 l/m 7,2 km/h (2 Bft) S-SO 149 0 min 0,000 mm 0,0 UV-I 0 W/m -2,0 C 1,5 C 7,9 km/h (2 Bft) 0,00 %
15.03.2015 01:00 2,3 C 74 % 1023,8 hPa 0,0 l/m 1,4 km/h (1 Bft) O-NO 75 0 min 0,000 mm 0,0 UV-I 0 W/m -1,8 C 2,3 C 4,0 km/h (1 Bft) 0,00 %
15.03.2015 01:15 2,3 C 74 % 1023,6 hPa 0,0 l/m 5,8 km/h (2 Bft) O-SO 114 0 min 0,000 mm 0,0 UV-I 0 W/m -1,8 C 2,3 C 7,9 km/h (2 Bft) 0,00 %
15.03.2015 01:30 2,2 C 74 % 1023,5 hPa 0,0 l/m 9,4 km/h (2 Bft) O 100 0 min 0,000 mm 0,0 UV-I 0 W/m -1,9 C -0,5 C 15,8 km/h (3 Bft) 0,00 %
15.03.2015 01:45 2,3 C 73 % 1023,3 hPa 0,0 l/m 7,2 km/h (2 Bft) O-SO 113 0 min 0,000 mm 0,0 UV-I 0 W/m -2,0 C 1,5 C 11,9 km/h (2 Bft) 0,00 %
15.03.2015 02:00 2,1 C 73 % 1023,6 hPa 0,0 l/m 7,9 km/h (2 Bft) O 95 0 min 0,000 mm 0,0 UV-I 0 W/m -2,2 C 0,7 C 11,9 km/h (2 Bft) 0,00 %
15.03.2015 02:15 1,7 C 74 % 1023,4 hPa 0,0 l/m 6,8 km/h (2 Bft) O-SO 109 0 min 0,000 mm 0,0 UV-I 0 W/m -2,4 C 1,3 C 7,9 km/h (2 Bft) 0,00 %
15.03.2015 02:30 1,4 C 77 % 1023,3 hPa 0,0 l/m 1,8 km/h (1 Bft) O-SO 119 0 min 0,000 mm 0,0 UV-I 0 W/m -2,2 C 1,4 C 4,0 km/h (1 Bft) 0,00 %
15.03.2015 02:45 1,3 C 77 % 1023,4 hPa 0,0 l/m 4,0 km/h (1 Bft) O-SO 115 0 min 0,000 mm 0,0 UV-I 0 W/m -2,3 C 1,3 C 7,9 km/h (2 Bft) 0,00 %
15.03.2015 03:00 1,3 C 78 % 1023,4 hPa 0,0 l/m 4,3 km/h (1 Bft) O-SO 109 0 min 0,000 mm 0,0 UV-I 0 W/m -2,1 C 1,3 C 7,9 km/h (2 Bft) 0,00 %
15.03.2015 03:15 1,4 C 77 % 1023,4 hPa 0,0 l/m 0,0 km/h (0 Bft) SO 138 0 min 0,000 mm 0,0 UV-I 0 W/m -2,2 C 1,4 C 0,0 km/h (0 Bft) 0,00 %
15.03.2015 03:30 1,5 C 77 % 1023,4 hPa 0,0 l/m 10,4 km/h (2 Bft) O-SO 106 0 min 0,000 mm 0,0 UV-I 0 W/m -2,1 C -2,1 C 19,8 km/h (3 Bft) 0,00 %
15.03.2015 03:45 1,6 C 77 % 1023,4 hPa 0,0 l/m 2,9 km/h (1 Bft) O-SO 117 0 min 0,000 mm 0,0 UV-I 0 W/m -2,0 C 1,6 C 7,9 km/h (2 Bft) 0,00 %
15.03.2015 04:00 1,6 C 77 % 1023,5 hPa 0,0 l/m 7,9 km/h (2 Bft) O 98 0 min 0,000 mm 0,0 UV-I 0 W/m -2,0 C 0,1 C 11,9 km/h (2 Bft) 0,00 %
15.03.2015 04:15 1,6 C 78 % 1023,6 hPa 0,0 l/m 13,0 km/h (3 Bft) O-SO 117 0 min 0,000 mm 0,0 UV-I 0 W/m -1,8 C -3,8 C 15,8 km/h (3 Bft) 0,00 %
15.03.2015 04:30 1,6 C 78 % 1023,7 hPa 0,0 l/m 14,8 km/h (3 Bft) O-SO 102 0 min 0,000 mm 0,0 UV-I 0 W/m -1,8 C -4,9 C 19,8 km/h (3 Bft) 0,00 %
15.03.2015 04:45 1,5 C 78 % 1023,4 hPa 0,0 l/m 4,3 km/h (1 Bft) S 179 0 min 0,000 mm 0,0 UV-I 0 W/m -1,9 C 1,5 C 7,9 km/h (2 Bft) 0,00 %
15.03.2015 05:00 1,6 C 78 % 1023,5 hPa 0,0 l/m 7,9 km/h (2 Bft) O-SO 106 0 min 0,000 mm 0,0 UV-I 0 W/m -1,8 C 0,1 C 11,9 km/h (2 Bft) 0,00 %
15.03.2015 05:15 1,6 C 78 % 1023,7 hPa 0,0 l/m 12,2 km/h (2 Bft) O-SO 120 0 min 0,000 mm 0,0 UV-I 0 W/m -1,8 C -3,3 C 15,8 km/h (3 Bft) 0,00 %
15.03.2015 05:30 1,6 C 78 % 1023,7 hPa 0,0 l/m 7,2 km/h (2 Bft) O-SO 113 0 min 0,000 mm 0,0 UV-I 0 W/m -1,8 C 0,8 C 7,9 km/h (2 Bft) 0,00 %
15.03.2015 05:45 1,6 C 78 % 1023,6 hPa 0,0 l/m 10,4 km/h (2 Bft) O-SO 102 0 min 0,000 mm 0,0 UV-I 0 W/m -1,8 C -2,0 C 11,9 km/h (2 Bft) 0,00 %
15.03.2015 06:00 1,6 C 78 % 1023,7 hPa 0,0 l/m 16,6 km/h (3 Bft) O 94 0 min 0,000 mm 0,0 UV-I 0 W/m -1,8 C -5,9 C 19,8 km/h (3 Bft) 0,00 %
15.03.2015 06:15 1,6 C 78 % 1023,7 hPa 0,0 l/m 15,8 km/h (3 Bft) O-SO 110 0 min 0,000 mm 0,0 UV-I 0 W/m -1,8 C -5,5 C 19,8 km/h (3 Bft) 0,00 %
15.03.2015 06:30 1,6 C 78 % 1023,8 hPa 0,0 l/m 15,5 km/h (3 Bft) O-SO 105 0 min 0,000 mm 0,0 UV-I 0 W/m -1,8 C -5,3 C 19,8 km/h (3 Bft) 0,00 %
15.03.2015 06:45 1,5 C 78 % 1024,1 hPa 0,0 l/m 12,2 km/h (2 Bft) O-SO 105 0 min 0,000 mm 0,0 UV-I 0 W/m -1,9 C -3,4 C 15,8 km/h (3 Bft) 0,00 %
15.03.2015 07:00 1,4 C 78 % 1024,0 hPa 0,0 l/m 11,5 km/h (2 Bft) O 87 0 min 0,000 mm 0,0 UV-I 34 W/m -2,0 C -3,0 C 15,8 km/h (3 Bft) 0,00 %
15.03.2015 07:15 1,5 C 78 % 1024,4 hPa 0,0 l/m 5,4 km/h (1 Bft) SO 133 0 min 0,000 mm 0,0 UV-I 66 W/m -1,9 C 1,5 C 11,9 km/h (2 Bft) 0,00 %
15.03.2015 07:30 1,5 C 78 % 1024,3 hPa 0,0 l/m 5,8 km/h (2 Bft) S 181 0 min 0,000 mm 0,0 UV-I 88 W/m -1,9 C 1,5 C 11,9 km/h (2 Bft) 0,00 %
15.03.2015 07:45 1,6 C 78 % 1024,3 hPa 0,0 l/m 9,0 km/h (2 Bft) O-SO 115 15 min 0,000 mm 1,0 UV-I 134 W/m -1,8 C -0,9 C 15,8 km/h (3 Bft) 0,00 %
15.03.2015 08:00 1,7 C 78 % 1024,4 hPa 0,0 l/m 4,3 km/h (1 Bft) O-SO 110 15 min 0,000 mm 1,0 UV-I 156 W/m -1,7 C 1,7 C 7,9 km/h (2 Bft) 0,00 %
15.03.2015 08:15 2,0 C 76 % 1024,5 hPa 0,0 l/m 9,0 km/h (2 Bft) O-SO 106 15 min 0,000 mm 1,0 UV-I 200 W/m -1,8 C -0,4 C 11,9 km/h (2 Bft) 0,00 %
15.03.2015 08:30 2,2 C 75 % 1024,6 hPa 0,0 l/m 9,7 km/h (2 Bft) O-NO 70 15 min 0,000 mm 1,0 UV-I 199 W/m -1,8 C -0,8 C 11,9 km/h (2 Bft) 0,00 %
15.03.2015 08:45 2,6 C 78 % 1023,2 hPa 0,0 l/m 5,4 km/h (1 Bft) O 89 15 min 0,000 mm 2,0 UV-I 267 W/m -0,8 C 2,6 C 7,9 km/h (2 Bft) 0,00 %
15.03.2015 09:00 3,1 C 76 % 1023,0 hPa 0,0 l/m 7,9 km/h (2 Bft) O 97 15 min 0,000 mm 2,0 UV-I 299 W/m -0,7 C 1,7 C 15,8 km/h (3 Bft) 0,00 %
15.03.2015 09:15 3,4 C 74 % 1022,8 hPa 0,0 l/m 10,8 km/h (2 Bft) O-NO 76 0 min 0,000 mm 2,0 UV-I 230 W/m -0,8 C -0,3 C 11,9 km/h (2 Bft) 0,00 %
15.03.2015 09:30 4,1 C 73 % 1022,9 hPa 0,0 l/m 11,9 km/h (2 Bft) O-SO 107 0 min 0,000 mm 2,0 UV-I 235 W/m -0,3 C -0,2 C 15,8 km/h (3 Bft) 0,00 %
15.03.2015 09:45 4,7 C 70 % 1022,4 hPa 0,0 l/m 17,3 km/h (3 Bft) O-SO 106 0 min 0,000 mm 2,0 UV-I 240 W/m -0,3 C -2,4 C 19,8 km/h (3 Bft) 0,00 %
15.03.2015 10:00 5,6 C 64 % 1022,3 hPa 0,0 l/m 6,5 km/h (2 Bft) O-SO 109 0 min 0,000 mm 3,0 UV-I 205 W/m -0,7 C 5,5 C 7,9 km/h (2 Bft) 0,00 %
15.03.2015 10:15 6,1 C 65 % 1022,2 hPa 0,0 l/m 5,8 km/h (2 Bft) O 93 0 min 0,000 mm 3,0 UV-I 218 W/m 0,0 C 6,1 C 7,9 km/h (2 Bft) 0,00 %
15.03.2015 10:30 6,7 C 61 % 1021,9 hPa 0,0 l/m 10,4 km/h (2 Bft) O-SO 105 0 min 0,000 mm 3,0 UV-I 241 W/m -0,3 C 3,7 C 11,9 km/h (2 Bft) 0,00 %
15.03.2015 10:45 7,5 C 57 % 1021,8 hPa 0,0 l/m 11,9 km/h (2 Bft) O-SO 108 0 min 0,000 mm 3,0 UV-I 267 W/m -0,5 C 3,7 C 15,8 km/h (3 Bft) 0,00 %
15.03.2015 11:00 8,0 C 59 % 1021,7 hPa 0,0 l/m 10,8 km/h (2 Bft) O-SO 104 0 min 0,000 mm 3,0 UV-I 292 W/m 0,5 C 4,9 C 15,8 km/h (3 Bft) 0,00 %
15.03.2015 11:15 8,5 C 54 % 1021,4 hPa 0,0 l/m 14,0 km/h (3 Bft) O 99 0 min 0,000 mm 3,0 UV-I 328 W/m -0,3 C 3,8 C 19,8 km/h (3 Bft) 0,00 %
15.03.2015 11:30 9,0 C 51 % 1021,1 hPa 0,0 l/m 13,3 km/h (3 Bft) O-SO 104 15 min 0,000 mm 4,0 UV-I 360 W/m -0,6 C 4,7 C 19,8 km/h (3 Bft) 0,00 %
15.03.2015 11:45 9,4 C 51 % 1021,2 hPa 0,0 l/m 18,4 km/h (3 Bft) S-SO 165 15 min 0,000 mm 4,0 UV-I 396 W/m -0,2 C 3,1 C 24,1 km/h (4 Bft) 0,00 %
15.03.2015 12:00 9,9 C 50 % 1021,0 hPa 0,0 l/m 16,6 km/h (3 Bft) O 88 15 min 0,000 mm 4,0 UV-I 424 W/m -0,0 C 4,4 C 24,1 km/h (4 Bft) 0,00 %
15.03.2015 12:15 10,2 C 42 % 1020,6 hPa 0,0 l/m 5,8 km/h (2 Bft) SO 139 15 min 0,000 mm 3,0 UV-I 425 W/m -2,1 C 10,2 C 7,9 km/h (2 Bft) 0,00 %
15.03.2015 12:30 10,6 C 39 % 1020,3 hPa 0,0 l/m 10,8 km/h (2 Bft) O-NO 63 15 min 0,000 mm 2,0 UV-I 430 W/m -2,8 C 7,8 C 15,8 km/h (3 Bft) 0,00 %
15.03.2015 12:45 11,2 C 31 % 1020,5 hPa 0,0 l/m 1,4 km/h (1 Bft) W-SW 251 15 min 0,000 mm 2,0 UV-I 435 W/m -5,3 C 11,2 C 4,0 km/h (1 Bft) 0,00 %
15.03.2015 13:00 11,2 C 29 % 1020,4 hPa 0,0 l/m 0,0 km/h (0 Bft) S 171 15 min 0,000 mm 2,0 UV-I 440 W/m -6,2 C 11,2 C 0,0 km/h (0 Bft) 0,00 %
15.03.2015 13:15 11,4 C 31 % 1020,0 hPa 0,0 l/m 7,2 km/h (2 Bft) O 97 15 min 0,000 mm 2,0 UV-I 445 W/m -5,1 C 10,9 C 7,9 km/h (2 Bft) 0,00 %
15.03.2015 13:30 11,4 C 30 % 1020,2 hPa 0,0 l/m 16,9 km/h (3 Bft) O-SO 109 15 min 0,000 mm 2,0 UV-I 450 W/m -5,5 C 6,1 C 24,1 km/h (4 Bft) 0,00 %
15.03.2015 13:45 11,3 C 31 % 1020,1 hPa 0,0 l/m 18,0 km/h (3 Bft) O 97 15 min 0,000 mm 2,0 UV-I 455 W/m -5,2 C 5,6 C 24,1 km/h (4 Bft) 0,00 %
15.03.2015 14:00 11,2 C 30 % 1019,9 hPa 0,0 l/m 6,8 km/h (2 Bft) NO 38 15 min 0,000 mm 2,0 UV-I 450 W/m -5,7 C 10,9 C 11,9 km/h (2 Bft) 0,00 %
15.03.2015 14:15 11,3 C 30 % 1019,8 hPa 0,0 l/m 9,4 km/h (2 Bft) O-SO 108 15 min 0,000 mm 2,0 UV-I 445 W/m -5,6 C 9,4 C 11,9 km/h (2 Bft) 0,00 %
15.03.2015 14:30 11,4 C 30 % 1020,1 hPa 0,0 l/m 16,9 km/h (3 Bft) O-SO 115 15 min 0,000 mm 2,0 UV-I 440 W/m -5,5 C 6,1 C 24,1 km/h (4 Bft) 0,00 %
15.03.2015 14:45 11,5 C 28 % 1019,9 hPa 0,0 l/m 9,7 km/h (2 Bft) O 101 15 min 0,000 mm 2,0 UV-I 435 W/m -6,4 C 9,4 C 11,9 km/h (2 Bft) 0,00 %
15.03.2015 15:00 11,5 C 28 % 1020,0 hPa 0,0 l/m 5,4 km/h (1 Bft) O-SO 114 15 min 0,000 mm 2,0 UV-I 430 W/m -6,4 C 11,5 C 7,9 km/h (2 Bft) 0,00 %
15.03.2015 15:15 11,2 C 29 % 1020,2 hPa 0,0 l/m 3,2 km/h (1 Bft) O-SO 118 15 min 0,000 mm 2,0 UV-I 420 W/m -6,2 C 11,2 C 7,9 km/h (2 Bft) 0,00 %
15.03.2015 15:30 10,9 C 35 % 1020,1 hPa 0,0 l/m 18,0 km/h (3 Bft) O 99 15 min 0,000 mm 1,0 UV-I 420 W/m -3,9 C 5,1 C 32,0 km/h (5 Bft) 0,00 %
15.03.2015 15:45 10,6 C 36 % 1020,4 hPa 0,0 l/m 6,5 km/h (2 Bft) O 87 15 min 0,000 mm 1,0 UV-I 415 W/m -3,8 C 10,6 C 15,8 km/h (3 Bft) 0,00 %
15.03.2015 16:00 10,6 C 35 % 1020,5 hPa 0,0 l/m 16,6 km/h (3 Bft) S-SO 147 15 min 0,000 mm 1,0 UV-I 410 W/m -4,2 C 5,2 C 19,8 km/h (3 Bft) 0,00 %
15.03.2015 16:15 10,3 C 36 % 1020,8 hPa 0,0 l/m 15,5 km/h (3 Bft) O 98 15 min 0,000 mm 1,0 UV-I 372 W/m -4,1 C 5,3 C 19,8 km/h (3 Bft) 0,00 %
15.03.2015 16:30 9,4 C 45 % 1021,0 hPa 0,0 l/m 11,5 km/h (2 Bft) O 86 15 min 0,000 mm 1,0 UV-I 310 W/m -1,9 C 6,1 C 15,8 km/h (3 Bft) 0,00 %
15.03.2015 16:45 8,9 C 46 % 1021,4 hPa 0,0 l/m 16,6 km/h (3 Bft) O-SO 119 15 min 0,000 mm 1,0 UV-I 276 W/m -2,1 C 3,1 C 24,1 km/h (4 Bft) 0,00 %
15.03.2015 17:00 8,5 C 46 % 1021,8 hPa 0,0 l/m 13,0 km/h (3 Bft) SO 132 15 min 0,000 mm 1,0 UV-I 221 W/m -2,4 C 4,3 C 15,8 km/h (3 Bft) 0,00 %
15.03.2015 17:15 8,2 C 48 % 1021,9 hPa 0,0 l/m 21,6 km/h (4 Bft) O 93 15 min 0,000 mm 0,0 UV-I 166 W/m -2,1 C 0,4 C 24,1 km/h (4 Bft) 0,00 %
15.03.2015 17:30 7,8 C 49 % 1022,7 hPa 0,0 l/m 9,7 km/h (2 Bft) O 98 15 min 0,000 mm 0,0 UV-I 99 W/m -2,2 C 5,4 C 15,8 km/h (3 Bft) 0,00 %
15.03.2015 17:45 7,4 C 50 % 1022,9 hPa 0,0 l/m 7,2 km/h (2 Bft) O 97 15 min 0,000 mm 0,0 UV-I 44 W/m -2,3 C 6,8 C 7,9 km/h (2 Bft) 0,00 %
15.03.2015 18:00 7,0 C 50 % 1023,3 hPa 0,0 l/m 6,8 km/h (2 Bft) O-SO 103 0 min 0,000 mm 0,0 UV-I 5 W/m -2,7 C 6,7 C 11,9 km/h (2 Bft) 0,00 %
15.03.2015 18:15 6,6 C 50 % 1023,4 hPa 0,0 l/m 13,3 km/h (3 Bft) O 99 0 min 0,000 mm 0,0 UV-I 0 W/m -3,1 C 1,9 C 15,8 km/h (3 Bft) 0,00 %
15.03.2015 18:30 6,3 C 51 % 1023,6 hPa 0,0 l/m 12,2 km/h (2 Bft) O-SO 103 0 min 0,000 mm 0,0 UV-I 0 W/m -3,1 C 2,1 C 15,8 km/h (3 Bft) 0,00 %
15.03.2015 18:45 6,1 C 50 % 1023,8 hPa 0,0 l/m 8,3 km/h (2 Bft) SO 127 0 min 0,000 mm 0,0 UV-I 0 W/m -3,5 C 4,5 C 15,8 km/h (3 Bft) 0,00 %
15.03.2015 19:00 6,0 C 49 % 1023,9 hPa 0,0 l/m 14,8 km/h (3 Bft) O-SO 104 0 min 0,000 mm 0,0 UV-I 0 W/m -3,9 C 0,4 C 19,8 km/h (3 Bft) 0,00 %
15.03.2015 19:15 5,8 C 49 % 1023,9 hPa 0,0 l/m 15,8 km/h (3 Bft) O 85 0 min 0,000 mm 0,0 UV-I 0 W/m -4,1 C -0,3 C 19,8 km/h (3 Bft) 0,00 %
15.03.2015 19:30 5,6 C 48 % 1023,9 hPa 0,0 l/m 17,3 km/h (3 Bft) O-SO 113 0 min 0,000 mm 0,0 UV-I 0 W/m -4,5 C -1,3 C 19,8 km/h (3 Bft) 0,00 %
15.03.2015 19:45 5,4 C 50 % 1024,2 hPa 0,0 l/m 15,5 km/h (3 Bft) O 100 0 min 0,000 mm 0,0 UV-I 0 W/m -4,2 C -0,7 C 19,8 km/h (3 Bft) 0,00 %
15.03.2015 20:00 5,3 C 50 % 1024,2 hPa 0,0 l/m 10,8 km/h (2 Bft) O-NO 71 0 min 0,000 mm 0,0 UV-I 0 W/m -4,3 C 1,9 C 15,8 km/h (3 Bft) 0,00 %
15.03.2015 20:15 5,2 C 49 % 1024,0 hPa 0,0 l/m 15,8 km/h (3 Bft) O 101 0 min 0,000 mm 0,0 UV-I 0 W/m -4,6 C -1,1 C 15,8 km/h (3 Bft) 0,00 %
15.03.2015 20:30 5,0 C 50 % 1024,2 hPa 0,0 l/m 10,8 km/h (2 Bft) O 92 0 min 0,000 mm 0,0 UV-I 0 W/m -4,5 C 1,5 C 11,9 km/h (2 Bft) 0,00 %
15.03.2015 20:45 4,7 C 51 % 1024,2 hPa 0,0 l/m 16,9 km/h (3 Bft) O-SO 102 0 min 0,000 mm 0,0 UV-I 0 W/m -4,6 C -2,2 C 19,8 km/h (3 Bft) 0,00 %
15.03.2015 21:00 4,6 C 53 % 1024,3 hPa 0,0 l/m 12,2 km/h (2 Bft) O 98 0 min 0,000 mm 0,0 UV-I 0 W/m -4,1 C 0,2 C 15,8 km/h (3 Bft) 0,00 %
15.03.2015 21:15 4,4 C 53 % 1024,3 hPa 0,0 l/m 3,2 km/h (1 Bft) O-NO 73 0 min 0,000 mm 0,0 UV-I 0 W/m -4,3 C 4,4 C 7,9 km/h (2 Bft) 0,00 %
15.03.2015 21:30 4,6 C 52 % 1024,4 hPa 0,0 l/m 9,0 km/h (2 Bft) O 96 0 min 0,000 mm 0,0 UV-I 0 W/m -4,4 C 2,4 C 11,9 km/h (2 Bft) 0,00 %
15.03.2015 21:45 4,4 C 55 % 1024,4 hPa 0,0 l/m 11,9 km/h (2 Bft) O 87 0 min 0,000 mm 0,0 UV-I 0 W/m -3,8 C 0,1 C 15,8 km/h (3 Bft) 0,00 %
15.03.2015 22:00 4,4 C 56 % 1024,5 hPa 0,0 l/m 9,7 km/h (2 Bft) O-SO 107 0 min 0,000 mm 0,0 UV-I 0 W/m -3,6 C 1,6 C 11,9 km/h (2 Bft) 0,00 %
15.03.2015 22:15 4,3 C 58 % 1024,5 hPa 0,0 l/m 6,5 km/h (2 Bft) SO 129 0 min 0,000 mm 0,0 UV-I 0 W/m -3,2 C 4,2 C 7,9 km/h (2 Bft) 0,00 %
15.03.2015 22:30 4,2 C 59 % 1024,5 hPa 0,0 l/m 14,4 km/h (3 Bft) O-SO 107 0 min 0,000 mm 0,0 UV-I 0 W/m -3,1 C -1,6 C 19,8 km/h (3 Bft) 0,00 %
15.03.2015 22:45 4,2 C 59 % 1024,4 hPa 0,0 l/m 20,5 km/h (4 Bft) O 101 0 min 0,000 mm 0,0 UV-I 0 W/m -3,1 C -4,4 C 24,1 km/h (4 Bft) 0,00 %
15.03.2015 23:00 4,2 C 59 % 1024,3 hPa 0,0 l/m 11,5 km/h (2 Bft) SO 136 0 min 0,000 mm 0,0 UV-I 0 W/m -3,1 C 0,2 C 15,8 km/h (3 Bft) 0,00 %
15.03.2015 23:15 3,9 C 61 % 1024,2 hPa 0,0 l/m 7,9 km/h (2 Bft) O 97 0 min 0,000 mm 0,0 UV-I 0 W/m -2,9 C 2,5 C 11,9 km/h (2 Bft) 0,00 %
15.03.2015 23:30 4,0 C 60 % 1024,2 hPa 0,0 l/m 5,4 km/h (1 Bft) O-SO 117 0 min 0,000 mm 0,0 UV-I 0 W/m -3,0 C 4,0 C 11,9 km/h (2 Bft) 0,00 %
15.03.2015 23:45 3,9 C 61 % 1024,4 hPa 0,0 l/m 6,8 km/h (2 Bft) O 93 0 min 0,000 mm 0,0 UV-I 0 W/m -2,9 C 3,5 C 11,9 km/h (2 Bft) 0,00 %
_ Min-Zeit 02:45 14:45 14:15 - 03:15 - - - - - - 14:45 06:00 03:15 00:00
Minimum _ 1,3 C 28 % 1019,8 hPa - 0,0 km/h (0 Bft) - - - - - - -6,4 C -5,9 C 0,0 km/h (0 Bft) 0,00 %
_ Max-Zeit 14:45 03:00 08:30 00:00 17:15 - - 07:45 00:00 11:30 13:45 11:00 15:00 15:30 00:00
Maximum _ 11,5 C 78 % 1024,6 hPa 0,0 l/m 21,6 km/h
O (4 Bft)
- - 15 min 0,000 mm 4,0 UV-I 455 W/m 0,5 C 11,5 C 32,0 km/h
O (5 Bft)
0,00 %
Durchschnitt _ 5,3 C 59 % 1022,8 hPa #0,0 l/m 10,0 km/h (2 Bft) O-SO - #8:00 h #0,000 mm 2,1 UV-I 296 W/m -2,7 C 2,4 C 14,0 km/h (3 Bft) 0,00 %